Regional Weather Roundup
Issued by NWS Charleston, SC

Current Version | Previous Version | Graphics & Text | Print | Product List | Glossary Off
Versions: 1 2 3 4 5 6 7 8 9 10 11 12 13 14 15 16 17 18 19 20 21 22 23 24 25 26 27 28 29 30 31 32 33 34 35 36 37 38 39 40 41 42 43 44 45 46

000
ASUS42 KCHS 290112
RWRCHS

REGIONAL WEATHER ROUNDUP
NATIONAL WEATHER SERVICE CHARLESTON SC
900 PM EDT TUE MAR 28 2017

NOTE: "FAIR" INDICATES FEW OR NO CLOUDS BELOW 12,000 FEET WITH NO
SIGNIFICANT WEATHER AND/OR OBSTRUCTIONS TO VISIBILITY.

NOT ALL STATIONS ARE QUALITY CONTROLLED. USE DATA WITH CAUTION...
ESPECIALLY DEWPOINT OBSERVATIONS.

SCZ027-030-031-034>040-042>050-290200-
...SOUTHEAST SOUTH CAROLINA...

CITY           SKY/WX    TMP DP  RH WIND       PRES   REMARKS
N CHARLESTON   PTCLDY    66  62  87 S7        29.94R
WATERFRONT PRK   N/A     67  64  90 SW5       29.92R
JOHNS ISLAND   MOCLDY    68  64  88 SW5       29.95R
PINOPOLIS        N/A     73  64  73 VRB3      29.84R
MONCKS CORNER  FAIR      68  61  77 SW5       29.93R
SUMMERVILLE    FAIR      68  64  88 CALM      29.94R
BEAUFORT MCAS  PTCLDY    68  67  96 CALM      29.94R
BEAUFORT ARPT  FAIR      66  63  88 S6        29.94S
HILTON HEAD IS CLEAR     70  63  78 S8        29.96R
WALTERBORO     CLEAR     66  64  94 S3        29.94R
ALLENDALE      FAIR      72  59  64 CALM      29.93R

...SOUTHERN MIDLANDS AND PEE DEE...

CITY           SKY/WX    TMP DP  RH WIND       PRES   REMARKS
GEORGETOWN     FAIR      68  61  77 SW7       29.93S
KINGSTREE      FAIR      68  55  64 CALM      29.91R
ORANGEBURG     CLEAR     71  56  58 SW3       29.92R
BARNWELL       FAIR      73  61  64 CALM      29.93R
AIKEN          FAIR      68  55  64 SW3       29.97R
MANNING        FAIR      68  57  68 CALM      29.92R
COLUMBIA       PTCLDY    74  58  57 W3        29.91R
SUMTER         CLEAR     69  58  67 W3        29.89R
FLORENCE       MOCLDY    72  57  59 SW5       29.90R
MYRTLE BEACH   PTCLDY    66  61  82 S5        29.91R
N MYRTLE BEACH PTCLDY    66  61  84 SW10      29.90R

$$

GAZ063-065-086>088-099>101-113>116-118-119-134>141-150-290200-
...SOUTHEAST GEORGIA...

CITY           SKY/WX    TMP DP  RH WIND       PRES   REMARKS
SAVANNAH ARPT  PTCLDY    74  57  55 SW5       29.95R
HUNTER AAF     CLEAR     73  64  74 CALM      29.93R
FORT STEWART   CLEAR     70  64  80 CALM      29.93R
STATESBORO     CLEAR     75  63  66 CALM      29.95R
SYLVANIA       CLEAR    N/A N/A N/A CALM      29.95R
CLAXTON        FAIR     N/A N/A N/A CALM      29.95S

...CSRA...CENTRAL AND FAR SOUTHEAST GEORGIA...

CITY           SKY/WX    TMP DP  RH WIND       PRES   REMARKS
THOMSON        CLEAR     69  59  70 CALM      29.99R
AUGUSTA-BUSH   CLEAR     69  60  73 SW3       29.92R
AUGUSTA-DANIEL CLEAR     77  56  48 W3        29.94R
SWAINSBORO     FAIR      72  61  68 CALM      29.96R
VIDALIA        CLEAR     72  61  68 CALM      29.96R
EASTMAN        FAIR      75  47  37 CALM      29.99R
HAZLEHURST     FAIR      73  63  69 SW3       29.96R
ALMA           CLEAR     71  62  73 SW3       29.97R
WAYCROSS       CLEAR     74  66  75 SW3       29.97S
JESUP          FAIR      70  59  68 CALM      29.97R
BAXLEY         FAIR      73  64  73 CALM      29.96S
BRUNSWICK      CLEAR     72  64  78 S6        29.98R
SAINT SIMONS   CLEAR     70  64  81 S10       29.97R

$$

SCZ027-028-034-036>038-045-046-048>050-GAZ119-141-290200-
...LAKE AND SUPPLEMENTAL COASTAL OBSERVATIONS...

STATION/POSITION TIME  TEMP    WIND        PRES    WAVE   SWELL
                       AIR SEA DIR/SP/G            HT/PER HT/PER/DIR
                 (UTC) (F)     (DEG/KT/KT) (MB)    (FT/S) (FT/S/D)
WINYAH BAY       NOT AVBL
LAKE MURRAY      0020   75     270/  5/  7 1012.2
ACE BASIN NERRS  NOT AVBL
FORT PULASKI     0048   69 65  220/  8/ 12 1014.4R
SAPELO ISLAND    0000   71     170/  8     1014.0

$$

ANZ835-935-AMZ111-154-330-350-352-354-370-450-454-472-290200-
...C-MAN AND BUOY OBSERVATIONS...

STATION/POSITION TIME  TEMP    WIND        PRES    WAVE   SWELL
                       AIR SEA DIR/SP/G            HT/PER HT/PER/DIR
                 (UTC) (F)     (DEG/KT/KT) (MB)    (FT/S) (FT/S/D)
BUOY 41004       2350   72 72  210/ 16/ 17 1012.6    5/10   5/130/10
BUOY 41008       2350   66 65  180/ 12/ 14 1013.8    3/11   3/110/11
FOLLY BEACH CMAN 0000   67     200/  9/ 10 1014.2F
CAPERS NEARSHORE 0008   66     230/ 16/ 19 1013.1R
FRIPP NEARSHORE  0008   67 64  230/  6/  8 1013.6F


STATION/POSITION TIME  TEMP    WIND        PRES    WAVE   SWELL
                       AIR SEA DIR/SP/G            HT/PER HT/PER/DIR
                 (UTC) (F)     (DEG/KT/KT) (MB)    (FT/S) (FT/S/D)
5E ST. MARYS GA  0100      67                N/A     4/11   3/130/11
FRYING PAN BUOY  0050   74 73  220/ 19/ 23 1012.9R   5/10   3/170/10
BUOY 41025       0050   73 75  250/ 19/ 23 1011.8R   5/ 9   3/120/ 9
CAPE LOOKOUT NC  0000   67     250/ 10/ 12 1012.4R
BUOY 41002       2350   70 73  190/ 10/ 12 1015.7    6/ 9   5/ 90/ 9
BUOY 41010       NOT AVBL
ST AUGUSTINE FL  0000   71 70  170/ 13/ 14 1015.9R


$$




USA.gov is the U.S. government's official web portal to all federal, state and local government web resources and services.